Hourly Weather Centropoligon

Today, 13 June, Sunday

Time Temperature Precipitation Wind Pressure Humidity
00:00 +9°C° 0 mm 1 mps 748 mmHg 78%
01:00 +10°C° 0 mm 1 mps 747 mmHg 76%
02:00 +10°C° 0 mm 1 mps 747 mmHg 74%
03:00 +11°C° 0 mm 1 mps 747 mmHg 72%
04:00 +10°C° 0 mm 2 mps 747 mmHg 70%
05:00 +12°C° 0 mm 2 mps 747 mmHg 68%
06:00 +12°C° 0 mm 2 mps 747 mmHg 66%
07:00 +13°C° 0 mm 2 mps 746 mmHg 71%
08:00 +12°C° 0 mm 3 mps 746 mmHg 75%
09:00 +13°C° 0 mm 3 mps 746 mmHg 79%
10:00 +12°C° 0.6 mm 3 mps 746 mmHg 85%
11:00 +12°C° 0.6 mm 3 mps 746 mmHg 92%
12:00 +12°C° 0.6 mm 3 mps 745 mmHg 98%
13:00 +12°C° 0.7 mm 3 mps 745 mmHg 98%
14:00 +12°C° 0.7 mm 3 mps 745 mmHg 98%
15:00 +12°C° 0.7 mm 3 mps 745 mmHg 98%
16:00 +13°C° 0.1 mm 3 mps 746 mmHg 97%
17:00 +14°C° 0.1 mm 3 mps 746 mmHg 95%
18:00 +14°C° 0.1 mm 3 mps 746 mmHg 94%
19:00 +14°C° 0.3 mm 2 mps 746 mmHg 95%
20:00 +13°C° 0.3 mm 2 mps 747 mmHg 96%
21:00 +13°C° 0.3 mm 2 mps 747 mmHg 97%
22:00 +10°C° 0 mm 2 mps 748 mmHg 97%
23:00 +9°C° 0 mm 2 mps 748 mmHg 96%

Tomorrow, 14 June, Monday

Time Temperature Precipitation Wind Pressure Humidity
00:00 +8°C° 0 mm 2 mps 748 mmHg 96%
01:00 +7°C° 0 mm 2 mps 749 mmHg 96%
02:00 +6°C° 0 mm 2 mps 749 mmHg 95%
03:00 +5°C° 0 mm 2 mps 749 mmHg 95%
04:00 +6°C° 0 mm 2 mps 750 mmHg 93%
05:00 +8°C° 0 mm 1 mps 750 mmHg 91%
06:00 +9°C° 0 mm 1 mps 751 mmHg 89%
07:00 +12°C° 0 mm 1 mps 751 mmHg 73%
08:00 +15°C° 0 mm 1 mps 751 mmHg 57%
09:00 +17°C° 0 mm 2 mps 751 mmHg 42%
10:00 +18°C° 0 mm 2 mps 751 mmHg 38%
11:00 +19°C° 0 mm 2 mps 751 mmHg 35%
12:00 +20°C° 0 mm 2 mps 751 mmHg 31%
13:00 +21°C° 0 mm 3 mps 751 mmHg 30%
14:00 +21°C° 0 mm 3 mps 751 mmHg 29%
15:00 +22°C° 0 mm 3 mps 751 mmHg 28%
16:00 +22°C° 0 mm 3 mps 751 mmHg 30%
17:00 +21°C° 0 mm 2 mps 751 mmHg 33%
18:00 +21°C° 0 mm 2 mps 751 mmHg 36%
19:00 +19°C° 0 mm 2 mps 751 mmHg 44%
20:00 +16°C° 0 mm 1 mps 751 mmHg 53%
21:00 +14°C° 0 mm 1 mps 751 mmHg 61%
22:00 +13°C° 0 mm 1 mps 751 mmHg 62%
23:00 +13°C° 0 mm 1 mps 751 mmHg 62%

Day after tomorrow, 15 June, Tuesday

Time Temperature Precipitation Wind Pressure Humidity
00:00 +12°C° 0 mm 1 mps 751 mmHg 63%
01:00 +12°C° 0 mm 1 mps 751 mmHg 65%
02:00 +12°C° 0 mm 1 mps 751 mmHg 67%
03:00 +12°C° 0 mm 2 mps 751 mmHg 68%
04:00 +13°C° 0 mm 2 mps 751 mmHg 67%
05:00 +14°C° 0 mm 2 mps 751 mmHg 65%
06:00 +15°C° 0 mm 2 mps 751 mmHg 64%
07:00 +15°C° 0 mm 1 mps 751 mmHg 66%
08:00 +15°C° 0 mm 1 mps 751 mmHg 68%
09:00 +15°C° 0 mm 1 mps 751 mmHg 70%
10:00 +18°C° 0 mm 2 mps 750 mmHg 61%
11:00 +21°C° 0 mm 3 mps 750 mmHg 51%
12:00 +24°C° 0 mm 3 mps 749 mmHg 41%
13:00 +25°C° 0 mm 4 mps 749 mmHg 41%
14:00 +25°C° 0 mm 4 mps 748 mmHg 42%
15:00 +25°C° 0 mm 4 mps 748 mmHg 42%
16:00 +22°C° 1.1 mm 4 mps 748 mmHg 57%
17:00 +20°C° 1.1 mm 4 mps 747 mmHg 71%
18:00 +18°C° 1.1 mm 3 mps 747 mmHg 86%
19:00 +17°C° 0.7 mm 3 mps 747 mmHg 90%
20:00 +16°C° 0.7 mm 3 mps 747 mmHg 93%
21:00 +15°C° 0.7 mm 2 mps 747 mmHg 97%
22:00 +15°C° 0 mm 2 mps 747 mmHg 97%
23:00 +14°C° 0 mm 2 mps 747 mmHg 97%

16 June, Wednesday

Time Temperature Precipitation Wind Pressure Humidity
00:00 +14°C° 0 mm 2 mps 746 mmHg 97%
01:00 +13°C° 0 mm 2 mps 746 mmHg 97%
02:00 +13°C° 0 mm 2 mps 746 mmHg 97%
03:00 +13°C° 0 mm 2 mps 746 mmHg 98%
04:00 +14°C° 0 mm 2 mps 746 mmHg 96%
05:00 +15°C° 0 mm 2 mps 746 mmHg 95%
06:00 +16°C° 0 mm 1 mps 746 mmHg 93%
07:00 +18°C° 0 mm 2 mps 746 mmHg 82%
08:00 +20°C° 0 mm 2 mps 746 mmHg 70%
09:00 +23°C° 0 mm 2 mps 746 mmHg 58%
10:00 +25°C° 0.1 mm 3 mps 746 mmHg 56%
11:00 +26°C° 0.1 mm 3 mps 745 mmHg 54%
12:00 +27°C° 0.1 mm 4 mps 745 mmHg 51%
13:00 +27°C° 0.2 mm 4 mps 745 mmHg 54%
14:00 +26°C° 0.2 mm 4 mps 744 mmHg 57%
15:00 +26°C° 0.2 mm 4 mps 744 mmHg 60%
16:00 +25°C° 0.3 mm 3 mps 744 mmHg 63%
17:00 +25°C° 0.3 mm 3 mps 744 mmHg 67%
18:00 +24°C° 0.3 mm 2 mps 744 mmHg 71%
19:00 +21°C° 0.5 mm 2 mps 744 mmHg 79%
20:00 +20°C° 0.5 mm 2 mps 744 mmHg 86%
21:00 +18°C° 0.5 mm 2 mps 744 mmHg 94%
22:00 +18°C° 0.7 mm 1 mps 744 mmHg 95%
23:00 +18°C° 0.7 mm 1 mps 744 mmHg 96%

17 June, Thursday

Time Temperature Precipitation Wind Pressure Humidity
00:00 +16°C° 0.7 mm 1 mps 744 mmHg 97%
01:00 +16°C° 0.5 mm 1 mps 743 mmHg 98%
02:00 +16°C° 0.5 mm 1 mps 743 mmHg 98%
03:00 +15°C° 0.5 mm 1 mps 743 mmHg 98%
04:00 +16°C° 0.2 mm 1 mps 743 mmHg 98%
05:00 +18°C° 0.2 mm 1 mps 743 mmHg 97%
06:00 +18°C° 0.2 mm 1 mps 743 mmHg 97%
07:00 +19°C° 0.7 mm 1 mps 743 mmHg 95%
08:00 +19°C° 0.7 mm 1 mps 743 mmHg 94%
09:00 +20°C° 0.7 mm 1 mps 743 mmHg 93%
10:00 +21°C° 1.2 mm 1 mps 743 mmHg 89%
11:00 +23°C° 1.2 mm 1 mps 743 mmHg 85%
12:00 +24°C° 1.2 mm 1 mps 743 mmHg 82%
13:00 +24°C° 1.5 mm 1 mps 742 mmHg 83%
14:00 +24°C° 1.5 mm 1 mps 742 mmHg 84%
15:00 +24°C° 1.5 mm 1 mps 742 mmHg 86%
16:00 +23°C° 1.7 mm 1 mps 742 mmHg 87%
17:00 +23°C° 1.7 mm 1 mps 742 mmHg 89%
18:00 +22°C° 1.7 mm 1 mps 741 mmHg 91%
19:00 +21°C° 0.2 mm 1 mps 741 mmHg 92%
20:00 +20°C° 0.2 mm 1 mps 741 mmHg 94%
21:00 +19°C° 0.2 mm 1 mps 741 mmHg 95%
22:00 +19°C° 0.1 mm 1 mps 741 mmHg 96%
23:00 +18°C° 0.1 mm 1 mps 741 mmHg 96%

18 June, Friday

Time Temperature Precipitation Wind Pressure Humidity
00:00 +16°C° 0.1 mm 1 mps 741 mmHg 97%
01:00 +16°C° 0.1 mm 1 mps 741 mmHg 97%
02:00 +16°C° 0.1 mm 1 mps 741 mmHg 97%
03:00 +15°C° 0.1 mm 1 mps 740 mmHg 97%
04:00 +15°C° 0 mm 0 mps 741 mmHg 96%
05:00 +16°C° 0 mm 0 mps 741 mmHg 95%
06:00 +17°C° 0 mm 0 mps 741 mmHg 95%
07:00 +19°C° 0.1 mm 0 mps 741 mmHg 86%
08:00 +23°C° 0.1 mm 1 mps 740 mmHg 77%
09:00 +25°C° 0.1 mm 1 mps 740 mmHg 68%
10:00 +25°C° 0.5 mm 1 mps 740 mmHg 69%
11:00 +26°C° 0.5 mm 1 mps 740 mmHg 69%
12:00 +27°C° 0.5 mm 1 mps 740 mmHg 69%
13:00 +26°C° 0.7 mm 1 mps 740 mmHg 73%
14:00 +25°C° 0.7 mm 1 mps 739 mmHg 77%
15:00 +24°C° 0.7 mm 1 mps 739 mmHg 82%
16:00 +23°C° 0.3 mm 1 mps 739 mmHg 85%
17:00 +22°C° 0.3 mm 1 mps 739 mmHg 88%
18:00 +19°C° 0.3 mm 0 mps 739 mmHg 91%
19:00 +21°C° 0.1 mm 1 mps 739 mmHg 92%
20:00 +20°C° 0.1 mm 1 mps 739 mmHg 94%
21:00 +19°C° 0.1 mm 1 mps 738 mmHg 95%
22:00 +19°C° 0 mm 1 mps 738 mmHg 96%
23:00 +19°C° 0 mm 1 mps 738 mmHg 96%
Show more

We Need Your Consent

Meteoprog and our Service Providers may store and access personal data such as cookies, device identifiers or other similar technologies on your device and process such data to personalise content and ads, as well as provide social media features and to analyse the traffic.

  • Store and/or access information on your device

    Cookies, device identifiers or other information can be stored or accessed on your device for the purposes indicated above.

  • Personalised ads and content, ad and content measurement, audience insights, and products development

    Ads and content can be personalised based on a profile. More data can be added to better personalise ads and content. Ad and content performance can be measured. Insights about the audience who saw the ads and content can be derived. Such data can be used to develop or improve user’s experience, systems and software.

By clicking ‘I Agree’ you will allow the use of indicated cookies, device identifiers, web beacons or other similar technologies. Your settings can be changed in the browser on your device.

For certain purposes, legitimate interests may be relied on, rather than consent. You can read more about this in our Privacy and Cookie Policy.